Regional Weather Roundup
Issued by NWS

Home | Current Version | Previous Version | Graphics & Text | Print | Product List | Glossary On
Versions: 1 2 3 4 5 6 7 8 9 10 11 12 13 14 15 16 17 18 19 20 21 22 23 24 25 26 27 28 29 30 31 32 33 34 35 36 37 38 39 40 41 42 43 44 45 46 47 48 49 50
000
ASUS43 KLOT 050500
RWRIL

ILLINOIS REGIONAL WEATHER ROUNDUP
NATIONAL WEATHER SERVICE CHICAGO/ROMEOVILLE IL
1200 AM CDT WED AUG 05 2015

NOTE: "FAIR" INDICATES FEW OR NO CLOUDS BELOW 12,000 FEET WITH NO
SIGNIFICANT WEATHER AND/OR OBSTRUCTIONS TO VISIBILITY.

* THESE STATIONS ARE NOT UNDER NWS QUALITY CONTROL. THEY ALSO MAY NOT
  REPORT WEATHER SUCH AS PRECIPITATION OR FOG.

ILZ001-002-007-009-015-016-024-050600-
NORTHWEST ILLINOIS

CITY           SKY/WX    TMP DP  RH WIND       PRES   REMARKS
MOLINE         CLEAR     64  61  90 S3        30.03F
STERLING*      PTCLDY    61  55  82 CALM      30.02R
$$

ILZ003-004-008-010-011-017-018-050600-
NORTH CENTRAL ILLINOIS

CITY           SKY/WX    TMP DP  RH WIND       PRES   REMARKS
ROCKFORD       PTCLDY    62  57  83 CALM      30.05F
$$

ILZ005-006-012>014-019>023-050600-
NORTHEAST ILLINOIS

CITY           SKY/WX    TMP DP  RH WIND       PRES   REMARKS
CHICAGO-OHARE  PTCLDY    67  58  72 CALM      30.04R
CHICAGO-MIDWAY PTCLDY    73  60  63 SE3       30.03S
AURORA         PTCLDY    60  56  86 CALM      30.05S
WAUKEGAN       CLEAR     61  59  93 CALM      30.03S
DUPAGE AIRPORT PTCLDY    63  57  81 CALM      30.04R
WHEELING       PTCLDY    66  59  78 CALM      30.05R
NORTHERLY ISL    N/A     70  60  70 SE3         N/A
$$

LMZ740>746-050600-
SOUTHERN LAKE MICHIGAN

STATION/POSITION SKY/WX   TEMP    WIND        PRES    VSBY  WAVE
                          AIR SEA DIR/SP/G                  HT/PER
                          (F)     (DEG/KT/KT) (MB)    (MI)  (FT/S)
HARRISON CRIB              72     130/  7/  8   N/A
BURNHAM HARBOR             71     110/  5/  7   N/A
CALUMET HARBOR             73      70/  5/  6   N/A
BURNS HARBOR               71      90/  7/  8 1017.6R
MICHIGAN CITY              69     120/  5/  5   N/A
MICHIGAN CITY 6N           72 74  150/  4/  6   N/A           1/ 3
ST. JOSEPH                 71 74  200/  6/  6   N/A           1
$$

ILZ025>027-034>036-040-047-049-050-058-095>099-050600-
WEST-CENTRAL ILLINOIS

CITY           SKY/WX    TMP DP  RH WIND       PRES   REMARKS
QUINCY         CLOUDY    71  64  78 E3        30.04R
MACOMB*        MOCLDY    66  64  94 CALM      30.06R
$$

ILZ028>032-037-038-041>044-048-051>054-059>061-050600-
CENTRAL ILLINOIS

CITY           SKY/WX    TMP DP  RH WIND       PRES   REMARKS
DECATUR        CLOUDY    68  65  90 CALM      30.04R
PEORIA         PTCLDY    69  63  81 CALM      30.05R
SPRINGFIELD    MOCLDY    67  63  87 CALM      30.05R
TAYLORVILLE    NOT AVBL
$$

ILZ033-039-045-046-055>057-062-063-050600-
EAST-CENTRAL ILLINOIS

CITY           SKY/WX    TMP DP  RH WIND       PRES   REMARKS
CHAMPAIGN      MOCLDY    66  63  90 CALM      30.05R
MATTOON        CLOUDY    69  65  86 CALM      30.03R
$$

ILZ079-100>102-050600-
SOUTHWEST ILLINOIS

CITY           SKY/WX    TMP DP  RH WIND       PRES   REMARKS
BELLEVILLE     CLEAR     74  74  99 NE2       30.00R
CAHOKIA*       CLOUDY    76  71  85 N3        30.01R
$$

ILZ064>066-069>071-074>076-080>082-084>086-088>090-092>094-050600-
SOUTH-CENTRAL ILLINOIS

CITY           SKY/WX    TMP DP  RH WIND       PRES   REMARKS
CARBONDALE     CLOUDY    74  68  81 S6        29.99S
MT. VERNON     CLOUDY    70  64  83 CALM      30.03R
SALEM*         MOCLDY    74  70  87 CALM      30.02R
$$

ILZ067-068-072-073-078-083-087-091-050600-
SOUTHEAST ILLINOIS

CITY           SKY/WX    TMP DP  RH WIND       PRES   REMARKS
LAWRENCEVILLE  MOCLDY    71  69  93 S3        30.03R
HARRISBURG*    CLOUDY    73  71  93 CALM      30.02R
$$

ABBREVIATIONS USED IN REMARKS
   TC - TEMPERATURE IN CELSIUS
  WCI - WIND CHILL INDEX
   HX - HEAT INDEX
  VSB - VISIBILITY
$$




USA.gov is the U.S. government's official web portal to all federal, state and local government web resources and services.